Orbital Elements at Epoch 2459200.5 (2020-Dec-17.0) TDB
Reference: JPL 17 (heliocentric ecliptic J2000)
Element | Value | Uncertainty (1-sigma) | Units |
e | .235202942819183 | 3.88e-08 | |
a | 2.575573626242068 | 1.163e-08 | au |
q | 1.96979112990246 | 9.7825e-08 | au |
i | 4.93214809756265 | 5.4281e-06 | deg |
node | 116.8780661445726 | 5.4191e-05 | deg |
peri | 231.1015221603356 | 5.5797e-05 | deg |
M | 148.5281013766665 | 1.5551e-05 | deg |
tp | 2458577.604046532617 (2019-Apr-04.10404653) | 6.2924e-05 | TDB |
period | 1509.765096098415 4.13 | 1.0226e-05 2.8e-08 | d yr |
n | .23844769026011 | 1.6151e-09 | deg/d |
Q | 3.181356122581677 | 1.4365e-08 | au |
|
| | Orbit Determination Parameters
Additional Information
|